Flag for Romania Weather past 2 weeks in Bucharest, Romania

Now
66 °F

Clear.


Feels Like: 66 °F
Forecast: 49 / 74 °F
Wind: No wind

Location: Bucharest / Imh

Current Time: Sep 30, 2014 at 9:25:09 PM

Latest Report: Sep 30, 2014 at 8:30 PM


Visibility: 10 mi

Pressure: 30.21 "Hg

Humidity: 60%

Dew point: 52 °F

Location of BucharestLocation

Historic Weather in Bucharest — Graph

°F

Bucharest temperature yesterday

Maximum temperature yesterday: 72 °F (at 3:30 PM)
Minimum temperature yesterday: 46 °F (at 5:00 AM)
Average temperature yesterday: 59 °F

Past Weeks' High & Low Weather Summary

 TemperatureHumidityPressure
High82 °F (Sep 22, 4:00 PM)100% (Sep 23, 2:00 PM)30.48 "Hg (Sep 23, 2:00 PM)
Low41 °F (Sep 25, 6:30 AM)21% (Sep 18, 4:00 PM)29.65 "Hg (Sep 22, 4:00 PM)
Average61 °F63%30.07 "Hg
* Reported Sep 15 8:00 PM — Sep 30 8:00 PM, Bucharest, Weather by CustomWeather, © 2014

Note: Actual official high and low records may vary slightly from our data, if they occured in-between our weather recording intervals... More about our weather records

Advertising

Bucharest weather history for previous 24 hours

 ConditionsComfort  
Time TempWeatherWind HumidityBarometerVisibility
8:00 PM
Sep 30
68 °FClear.No wind56%30.21 "Hg10 mi
7:30 PM70 °FSunny.3 mph53%30.18 "Hg10 mi
7:00 PM72 °FSunny.5 mph47%30.18 "Hg10 mi
6:30 PM75 °FPassing clouds.7 mph39%30.18 "HgN/A
6:00 PM75 °FSunny.8 mph39%30.18 "Hg10 mi
5:30 PM77 °FPassing clouds.7 mph34%30.18 "HgN/A
5:00 PM77 °FPassing clouds.6 mph34%30.18 "HgN/A
4:30 PM77 °FPassing clouds.6 mph34%30.21 "HgN/A
4:00 PM77 °FPassing clouds.5 mph30%30.21 "HgN/A
3:30 PM77 °FPassing clouds.6 mph28%30.21 "HgN/A
3:00 PM77 °FSunny.6 mph30%30.21 "Hg10 mi
2:30 PM75 °FPassing clouds.5 mph31%30.24 "HgN/A
2:00 PM75 °FPassing clouds.5 mph34%30.24 "HgN/A
1:30 PM73 °FSunny.5 mph36%30.24 "Hg10 mi
1:00 PM73 °FPassing clouds.3 mph38%30.24 "HgN/A
12:30 PM72 °FSunny.5 mph47%30.27 "Hg10 mi
12:00 PM70 °FPassing clouds.6 mph46%30.27 "HgN/A
11:30 AM66 °FPassing clouds.5 mph52%30.27 "HgN/A
11:00 AM64 °FPassing clouds.6 mph60%30.27 "HgN/A
10:30 AM61 °FPassing clouds.7 mph68%30.27 "HgN/A
10:00 AM57 °FPassing clouds.6 mph77%30.27 "HgN/A
9:30 AM55 °FSunny.6 mph77%30.27 "Hg10 mi
9:00 AM54 °FCool.6 mph82%30.27 "Hg3 mi
8:30 AM52 °FFog.5 mph94%30.27 "Hg2 mi
8:00 AM50 °FFog.3 mph94%30.27 "Hg2 mi
7:30 AM50 °FFog.2 mph94%30.27 "Hg2 mi
7:00 AM50 °FFog.5 mph94%30.27 "Hg2 mi
6:30 AM50 °FFog.3 mph94%30.27 "Hg2 mi
6:00 AM50 °FFog.3 mph94%30.27 "Hg2 mi
5:30 AM50 °FClear.No wind94%30.27 "Hg4 mi
5:00 AM52 °FClear.2 mph88%30.27 "Hg4 mi
4:30 AM52 °FFog.2 mph88%30.27 "Hg3 mi
4:00 AM54 °FClear.5 mph88%30.27 "Hg5 mi
3:30 AM54 °FClear.5 mph88%30.27 "Hg5 mi
3:00 AM54 °FClear.5 mph88%30.30 "Hg5 mi
2:30 AM54 °FClear.6 mph88%30.30 "Hg10 mi
2:00 AM54 °FClear.3 mph88%30.30 "Hg10 mi
1:30 AM54 °FClear.3 mph88%30.30 "Hg10 mi
1:00 AM54 °FClear.3 mph82%30.33 "Hg10 mi
12:30 AM55 °FClear.2 mph82%30.33 "Hg10 mi
12:00 AM55 °FClear.3 mph82%30.33 "Hg10 mi
11:30 PM
Sep 29
57 °FClear.2 mph72%30.33 "Hg10 mi
11:00 PM57 °FClear.3 mph72%30.33 "Hg10 mi
10:30 PM59 °FClear.2 mph68%30.33 "Hg10 mi
10:00 PM61 °FClear.1 mph63%30.33 "Hg10 mi
9:30 PM61 °FClear.No wind63%30.36 "Hg10 mi
9:00 PM61 °FClear.No wind63%30.36 "Hg10 mi
Weather by CustomWeather, © 2014

See weather overviewHow to use our weather pages